Location: Hyde Park
(33.9806°N, 118.3306°W)
Time: 05:13:26
(UTC+00:00)

Cosmos 2278 Rocket - Pass Details

Date: 03 August 2024
Orbit: 841 x 844 km, 71.0° (Epoch: 13 September)

Event Time Altitude Azimuth Distance (km) Brightness Sun altitude
Rises 12:08:04 0° 342° (NNW) 3,401 5.5 -11.8°
Reaches altitude 10° 12:10:33 10° 345° (NNW) 2,463 4.8 -11.3°
Maximum altitude 12:16:10 66° 68° (ENE) 914 2.7 -10.3°
Drops below altitude 10° 12:21:46 10° 150° (SSE) 2,452 4.6 -9.3°
Sets 12:24:13 0° 153° (SSE) 3,384 5.3 -8.8°
